Location: Newark
(25.4800°N, 85.7200°E)
Time: 15:40:50
(UTC+00:00)

Explorer 11/Cluster Stage 4 - Pass Details

Date: 19 August 2019
Orbit: 467 x 1260 km, 28.8° (Epoch: 17 September)

Event Time Altitude Azimuth Distance (km) Brightness Sun altitude
Rises 05:08:34 0° 237° (WSW) 4,168 10.2 68.8°
Reaches altitude 10° 05:11:32 10° 233° (SW) 3,224 9.8 69.4°
Maximum altitude 05:19:36 57° 157° (SSE) 1,418 9.7 70.8°
Drops below altitude 10° 05:27:06 10° 81° (E) 3,013 9.9 72.1°
Sets 05:29:47 0° 77° (ENE) 3,881 10.3 72.6°
